Weather History for KHAI - January, 2007

Change the Weather History Date:

Friday, January 19, 2007

  Actual Average Record
Temperature  
Mean Temperature 27 °F -  
Max Temperature 30 °F 31 °F - (-1)
Min Temperature 24 °F 12 °F - (-1)
Degree Days  
Heating Degree Days 38    
Moisture  
Dew Point 22 °F    
Average Humidity 80    
Maximum Humidity 93    
Minimum Humidity 69    
Precipitation  
Precipitation 0.00 in - - ()
Sea Level Pressure  
Sea Level Pressure 30.08 in    
Wind  
Wind Speed 11 mph (West)    
Max Wind Speed 17 mph    
Max Gust Speed 25 mph    
Visibility 8 miles    
Events Snow    
Averages and records for this station are not official NWS values.
T = Trace of Precipitation, MM = Missing Value Source: NWS Daily Summary

Daily Weather History Graph

Daily Weather History Graph

Search for Another Location

Airport or City:

Trip Planner

Search our weather history database for the weather conditions in past years. The results will help you decide how hot, cold, wet, or windy it might be!

Date:

Astronomy

Jan. 19, 2007 Rise Set
Actual Time 8:05 AM EST 5:40 PM EST
Civil Twilight 7:35 AM EST 6:11 PM EST
Nautical Twilight 7:01 AM EST 6:45 PM EST
Astronomical Twilight 6:27 AM EST 7:18 PM EST
Moon 8:47 AM EST (1/19) 6:19 PM EST (1/19)
Length of Visible Light 10h 35m
Length of Day
9h 34m
New Moon, 0% of the Moon is Illuminated
Jan 19
New Moon
Jan 25
First Quarter
Feb 2
Full
Feb 10
Last Quarter
Feb 17
New

Hourly Weather History & Observations

Time (EST) Temp. Windchill Dew Point Humidity Pressure Visibility Wind Dir Wind Speed Gust Speed Precip Events Conditions
12:16 AM 30.2 °F 21.3 °F 28.4 °F 93% 29.96 in 2.5 mi WSW 10.4 mph - N/A Snow Light Snow
12:37 AM 30.2 °F 20.2 °F 26.6 °F 86% 29.96 in 7.0 mi West 12.7 mph 17.3 mph N/A   Overcast
12:56 AM 28.4 °F 18.5 °F 26.6 °F 93% 29.97 in 10.0 mi West 11.5 mph - N/A   Overcast
1:16 AM 30.2 °F 20.8 °F 26.6 °F 86% 29.97 in 10.0 mi West 11.5 mph - N/A   Overcast
1:36 AM 30.2 °F 21.9 °F 26.6 °F 86% 29.98 in 7.0 mi West 9.2 mph - N/A Snow Light Snow
1:56 AM 30.2 °F 20.8 °F 26.6 °F 86% 29.98 in 7.0 mi West 11.5 mph 16.1 mph N/A Snow Light Snow
2:16 AM 30.2 °F 21.3 °F 26.6 °F 86% 29.99 in 7.0 mi West 10.4 mph - N/A Snow Light Snow
2:36 AM 30.2 °F 21.9 °F 26.6 °F 86% 30.00 in 5.0 mi WSW 9.2 mph - N/A Snow Light Snow
3:16 AM 30.2 °F 19.8 °F 26.6 °F 86% 30.01 in 7.0 mi West 13.8 mph - N/A   Overcast
3:36 AM 30.2 °F 21.9 °F 26.6 °F 86% 30.02 in 7.0 mi West 9.2 mph - N/A   Overcast
3:56 AM 28.4 °F 17.0 °F 24.8 °F 86% 30.02 in 7.0 mi West 15.0 mph - N/A   Overcast
4:16 AM 28.4 °F 17.0 °F 24.8 °F 86% 30.02 in 7.0 mi West 15.0 mph - N/A   Overcast
4:37 AM 28.4 °F 17.0 °F 24.8 °F 86% 30.03 in 7.0 mi West 15.0 mph 25.3 mph N/A   Overcast
4:56 AM 28.4 °F 16.2 °F 24.8 °F 86% 30.03 in 7.0 mi West 17.3 mph 20.7 mph N/A Snow Light Snow
5:16 AM 28.4 °F 17.5 °F 23.0 °F 80% 30.04 in 7.0 mi WNW 13.8 mph 23.0 mph N/A Snow Light Snow
5:36 AM 28.4 °F 19.1 °F 21.2 °F 74% 30.05 in 10.0 mi West 10.4 mph 19.6 mph N/A Snow Light Snow
5:56 AM 28.4 °F 18.5 °F 21.2 °F 74% 30.05 in 10.0 mi West 11.5 mph 17.3 mph N/A Snow Light Snow
6:17 AM 28.4 °F 19.1 °F 21.2 °F 74% 30.06 in 7.0 mi West 10.4 mph - N/A Snow Light Snow
6:36 AM 26.6 °F 17.5 °F 23.0 °F 86% 30.07 in 5.0 mi West 9.2 mph - N/A Snow Light Snow
6:56 AM 26.6 °F 16.8 °F 23.0 °F 86% 30.08 in 3.0 mi West 10.4 mph - N/A Snow Light Snow
7:16 AM 26.6 °F 19.1 °F 23.0 °F 86% 30.08 in 7.0 mi West 6.9 mph - N/A Snow Light Snow
7:36 AM 26.6 °F 16.2 °F 23.0 °F 86% 30.09 in 7.0 mi West 11.5 mph - N/A Snow Light Snow
7:56 AM 26.6 °F 17.5 °F 23.0 °F 86% 30.10 in 5.0 mi West 9.2 mph - N/A Snow Light Snow
8:16 AM 26.6 °F 19.1 °F 23.0 °F 86% 30.10 in 3.0 mi WSW 6.9 mph - N/A Snow Light Snow
8:36 AM 26.6 °F 16.8 °F 23.0 °F 86% 30.11 in 4.0 mi WSW 10.4 mph - N/A Snow Light Snow
8:56 AM 26.6 °F 16.8 °F 21.2 °F 80% 30.11 in 10.0 mi WSW 10.4 mph - N/A Snow Light Snow
9:17 AM 26.6 °F 18.2 °F 23.0 °F 86% 30.12 in 3.0 mi WSW 8.1 mph - N/A Snow Light Snow
9:36 AM 26.6 °F 17.5 °F 23.0 °F 86% 30.12 in 2.0 mi West 9.2 mph - N/A Snow Light Snow
9:56 AM 26.6 °F 16.2 °F 23.0 °F 86% 30.12 in 4.0 mi West 11.5 mph 18.4 mph N/A Snow Light Snow
10:16 AM 28.4 °F 19.7 °F 21.2 °F 74% 30.12 in 10.0 mi West 9.2 mph - N/A Snow Light Snow
10:36 AM 28.4 °F 18.5 °F 21.2 °F 74% 30.13 in 10.0 mi West 11.5 mph 18.4 mph N/A Snow Light Snow
10:56 AM 26.6 °F 16.8 °F 21.2 °F 80% 30.14 in 7.0 mi WSW 10.4 mph 18.4 mph N/A Snow Light Snow
11:16 AM 26.6 °F 15.7 °F 21.2 °F 80% 30.15 in 10.0 mi West 12.7 mph 18.4 mph N/A   Overcast
11:36 AM 26.6 °F 17.5 °F 21.2 °F 80% 30.15 in 10.0 mi West 9.2 mph 16.1 mph N/A   Overcast
11:56 AM 26.6 °F 16.2 °F 21.2 °F 80% 30.13 in 10.0 mi West 11.5 mph 17.3 mph N/A   Overcast
12:16 PM 26.6 °F 14.7 °F 19.4 °F 74% 30.13 in 10.0 mi West 15.0 mph 23.0 mph N/A   Overcast
12:36 PM 26.6 °F 15.7 °F 19.4 °F 74% 30.13 in 10.0 mi West 12.7 mph 18.4 mph N/A   Overcast
12:56 PM 26.6 °F 14.7 °F 21.2 °F 80% 30.13 in 10.0 mi West 15.0 mph 19.6 mph N/A   Overcast
1:16 PM 26.6 °F 14.7 °F 21.2 °F 80% 30.12 in 10.0 mi West 15.0 mph 25.3 mph N/A   Overcast
1:36 PM 26.6 °F 15.7 °F 21.2 °F 80% 30.12 in 10.0 mi WSW 12.7 mph 18.4 mph N/A   Overcast
1:56 PM 26.6 °F 15.7 °F 19.4 °F 74% 30.11 in 10.0 mi West 12.7 mph 19.6 mph N/A   Overcast
2:16 PM 26.6 °F 16.8 °F 19.4 °F 74% 30.11 in 10.0 mi WSW 10.4 mph 17.3 mph N/A   Overcast
2:36 PM 26.6 °F 16.8 °F 19.4 °F 74% 30.11 in 10.0 mi WSW 10.4 mph - N/A   Overcast
2:58 PM 26.6 °F 14.7 °F 19.4 °F 74% 30.10 in 10.0 mi West 15.0 mph 18.4 mph N/A   Overcast
3:16 PM 26.6 °F 16.2 °F 19.4 °F 74% 30.10 in 10.0 mi WSW 11.5 mph - N/A   Overcast
3:36 PM 28.4 °F 17.0 °F 19.4 °F 69% 30.09 in 10.0 mi West 15.0 mph 18.4 mph N/A   Overcast
3:56 PM 28.4 °F 17.5 °F 19.4 °F 69% 30.10 in 10.0 mi West 13.8 mph - N/A   Overcast
4:17 PM 26.6 °F 15.7 °F 19.4 °F 74% 30.11 in 10.0 mi West 12.7 mph 19.6 mph N/A   Overcast
4:36 PM 26.6 °F 16.8 °F 17.6 °F 69% 30.11 in 10.0 mi WSW 10.4 mph 19.6 mph N/A   Mostly Cloudy
4:56 PM 26.6 °F 16.2 °F 17.6 °F 69% 30.11 in 10.0 mi WSW 11.5 mph - N/A   Mostly Cloudy
5:16 PM 26.6 °F 18.2 °F 17.6 °F 69% 30.11 in 10.0 mi WSW 8.1 mph - N/A   Mostly Cloudy
5:36 PM 26.6 °F 18.2 °F 17.6 °F 69% 30.11 in 10.0 mi WSW 8.1 mph 16.1 mph N/A   Mostly Cloudy
5:56 PM 26.6 °F 17.5 °F 17.6 °F 69% 30.12 in 10.0 mi WSW 9.2 mph - N/A   Mostly Cloudy
6:16 PM 24.8 °F 15.3 °F 17.6 °F 74% 30.14 in 10.0 mi WSW 9.2 mph - N/A   Mostly Cloudy
6:36 PM 26.6 °F 17.5 °F 19.4 °F 74% 30.14 in 10.0 mi WSW 9.2 mph - N/A   Overcast
6:56 PM 26.6 °F 17.5 °F 19.4 °F 74% 30.14 in 10.0 mi West 9.2 mph - N/A   Overcast
7:18 PM 26.6 °F 16.2 °F 19.4 °F 74% 30.14 in 10.0 mi West 11.5 mph - N/A Snow Light Snow
7:36 PM 26.6 °F 16.2 °F 17.6 °F 69% 30.15 in 10.0 mi WNW 11.5 mph 24.2 mph N/A   Overcast
7:56 PM 26.6 °F 13.1 °F 17.6 °F 69% 30.15 in 10.0 mi West 19.6 mph 25.3 mph N/A Snow Light Snow
8:16 PM 26.6 °F 15.2 °F 15.8 °F 64% 30.16 in 10.0 mi WNW 13.8 mph 18.4 mph N/A   Overcast
8:36 PM 24.8 °F 14.6 °F 17.6 °F 74% 30.17 in 10.0 mi WNW 10.4 mph - N/A Snow Light Snow
8:56 PM 24.8 °F 14.6 °F 17.6 °F 74% 30.18 in 10.0 mi WNW 10.4 mph 16.1 mph N/A Snow Light Snow
9:16 PM 24.8 °F 17.9 °F 17.6 °F 74% 30.18 in 10.0 mi WNW 5.8 mph - N/A   Overcast
9:36 PM 24.8 °F 16.1 °F 17.6 °F 74% 30.18 in 10.0 mi WNW 8.1 mph - N/A   Overcast
9:56 PM 24.8 °F 19.1 °F 17.6 °F 74% 30.19 in 10.0 mi WNW 4.6 mph - N/A   Overcast
10:16 PM 24.8 °F 19.1 °F 17.6 °F 74% 30.19 in 10.0 mi West 4.6 mph - N/A   Overcast
10:37 PM 24.8 °F 20.5 °F 19.4 °F 80% 30.20 in 10.0 mi West 3.5 mph - N/A   Overcast
10:58 PM 24.8 °F 17.9 °F 19.4 °F 80% 30.21 in 10.0 mi West 5.8 mph - N/A   Overcast
11:18 PM 24.8 °F 17.9 °F 19.4 °F 80% 30.21 in 10.0 mi West 5.8 mph - N/A Snow Light Snow
11:37 PM 24.8 °F 19.1 °F 19.4 °F 80% 30.22 in 10.0 mi West 4.6 mph - N/A   Overcast
11:57 PM 24.8 °F 16.9 °F 17.6 °F 74% 30.22 in 10.0 mi WNW 6.9 mph - N/A Snow Light Snow